Wind_Speed
15 15 14 15 16 17 18 19 21 22 22 22 21 21 21 21 22 22 22 22 22 22 22 22 21 21 21 22 22 22 22 21 21 21 21 21 21 22 21 22 23 23 24
15 16 16 15 16 17 17 18 20 20 20 21 21 21 21 22 22 22 22 22 22 23 23 22 23 23 23 23 23 24 23 22 22 23 23 23 23 24 25 25 26 26 27
14 15 16 16 17 17 18 19 19 20 20 21 20 21 22 22 22 22 23 23 23 23 24 24 23 23 24 24 23 24 24 24 24 25 26 26 26 27 27 28 29 30 30
13 14 15 15 15 16 16 17 18 18 19 20 20 20 21 22 22 23 24 24 24 24 24 25 25 24 25 24 24 25 25 25 26 27 28 28 29 30 30 31 31 32 32
12 13 14 14 14 15 15 15 16 17 17 19 20 21 21 21 23 23 24 24 24 24 26 26 26 25 25 26 26 27 27 27 28 29 30 30 31 32 33 33 34 35 35
11 12 12 13 13 14 14 14 15 16 17 18 19 19 20 20 21 23 23 24 24 25 26 27 27 26 27 27 27 27 28 29 29 30 31 32 33 34 34 35 35 36 37
11 10 11 11 12 13 13 14 14 15 16 17 18 19 19 20 20 22 23 24 25 25 26 27 28 29 28 29 30 29 29 29 31 32 33 34 35 36 37 37 37 38 39
12 12 12 12 12 12 13 13 13 14 15 16 17 18 19 19 19 21 21 23 24 26 27 27 29 30 30 30 30 30 31 32 33 34 34 35 36 37 38 39 39 40 41
13 12 12 13 12 12 12 12 13 13 14 15 16 18 19 20 20 21 22 23 25 26 28 29 29 28 29 30 31 32 33 34 35 35 35 36 37 38 39 40 40 41 42
13 12 12 12 12 12 12 12 13 13 13 14 16 17 18 20 21 22 23 24 25 27 27 28 28 29 30 31 33 34 34 35 35 36 38 39 39 40 40 41 42 42 43
13 13 13 13 13 13 13 13 14 14 14 15 15 16 17 19 20 21 22 23 25 26 28 28 29 29 31 32 32 33 34 35 36 37 38 40 41 42 42 42 43 43 44
14 15 15 14 14 15 15 15 15 16 16 16 17 18 19 20 21 22 23 24 25 27 28 29 30 30 31 33 33 33 34 35 35 36 37 38 39 40 41 42 43 44 45
16 16 16 16 16 16 16 17 17 17 18 18 19 19 20 21 22 23 24 25 26 27 28 29 30 30 31 32 32 33 34 36 36 37 37 39 40 41 43 43 44 45 45
16 16 16 17 17 17 17 18 18 19 19 20 21 22 23 23 23 23 23 25 26 27 29 29 29 30 31 31 32 34 34 35 36 37 39 40 42 43 43 44 45 46 47
17 17 17 17 18 18 19 19 19 19 19 20 21 22 23 23 23 23 24 25 26 27 27 28 30 31 31 32 33 33 35 36 37 39 41 42 43 44 46 46 47 48 50
17 17 18 18 19 19 20 20 20 20 20 21 22 22 22 23 24 24 25 26 27 28 29 30 30 31 32 34 35 36 38 39 40 42 44 45 46 47 48 49 49 50 51
18 18 18 19 20 20 19 20 20 20 21 22 22 23 24 24 25 25 26 27 28 30 31 32 33 34 35 36 37 39 40 41 42 44 46 47 48 49 50 50 51 51 52
18 18 19 19 19 19 20 21 21 21 21 22 23 23 24 25 25 26 27 28 30 32 33 35 36 37 38 39 40 41 42 44 45 46 48 49 49 50 50 50 50 51 51
18 18 19 19 19 19 19 20 20 21 21 22 24 24 25 26 27 28 29 31 33 34 35 37 37 38 39 41 42 43 44 45 46 47 48 48 48 48 48 49 49 49 48
18 18 18 19 19 19 19 20 20 21 22 23 24 25 26 27 29 30 32 33 34 35 36 37 38 40 41 42 43 44 45 45 46 46 46 46 46 46 46 46 45 45 44
18 18 18 18 18 18 18 19 21 22 23 23 24 25 27 29 30 31 32 34 35 36 37 38 39 40 41 42 43 43 44 44 44 44 44 43 43 43 43 42 41 41 41
16 16 17 17 18 19 20 20 21 22 24 25 27 28 29 30 31 32 33 34 36 37 38 39 40 41 41 42 42 43 42 42 41 41 41 41 40 40 39 39 38 38 38
16 17 17 17 18 19 20 21 23 24 26 27 28 29 31 32 33 33 34 36 37 38 38 39 40 40 40 41 41 40 40 39 39 39 38 37 37 37 36 36 36 36 35
17 17 18 18 20 21 22 23 25 26 28 29 30 31 32 33 34 35 36 37 37 38 38 39 39 38 38 38 38 38 38 37 36 36 35 35 34 34 34 34 34 33 33
18 18 19 20 22 23 24 25 26 27 28 30 31 32 33 34 35 36 36 36 37 37 37 37 36 36 36 36 36 36 35 34 33 33 32 32 32 32 32 31 31 31 31
19 20 21 22 23 24 25 26 27 29 30 31 32 33 34 34 35 35 35 35 35 35 35 35 35 35 34 34 34 33 32 31 31 30 30 29 29 29 29 29 29 29 28
Wind_Direction
259 254 253 250 246 245 247 243 239 238 237 236 237 238 241 241 241 241 241 244 244 244 246 248 248 252 255 258 260 261 263 263 263 265 266 267 268 269 271 273 275 277 276
258 253 251 248 247 248 247 243 241 238 237 236 237 239 241 241 241 241 242 242 243 244 247 249 251 254 256 258 260 262 263 261 262 264 266 269 271 273 275 276 277 279 280
256 253 252 251 251 251 249 246 242 240 238 237 236 238 241 240 240 243 244 245 246 248 249 250 252 255 257 260 262 263 262 261 263 265 267 270 272 274 275 277 278 279 280
256 253 253 251 250 246 246 245 243 242 240 237 236 237 239 239 241 244 246 247 249 250 249 250 253 255 257 259 262 263 263 264 266 267 268 270 273 274 276 277 279 280 280
262 258 253 252 250 247 247 244 243 244 242 239 239 239 239 241 241 243 245 248 250 251 253 254 255 256 258 262 265 266 266 266 267 267 268 271 273 275 276 277 278 280 281
265 261 257 254 251 250 248 247 244 243 243 242 240 239 241 242 245 244 246 248 251 254 255 257 259 258 260 261 265 268 268 268 269 269 270 272 274 275 277 278 279 281 282
268 262 256 255 253 253 253 251 248 248 246 243 242 242 243 244 247 248 248 250 254 257 259 261 262 260 260 263 264 266 268 270 271 272 273 275 275 276 277 278 280 281 282
269 263 258 258 257 257 254 250 250 250 247 247 246 247 248 249 252 254 255 257 259 260 260 262 263 261 261 264 265 266 269 271 273 274 274 275 276 276 277 278 280 281 282
263 263 261 257 256 255 253 251 254 253 252 249 250 250 251 251 255 255 257 260 261 263 264 264 265 265 265 267 267 269 270 273 274 275 276 276 277 278 279 281 282 283 284
260 261 262 262 260 259 255 255 255 255 256 257 255 256 258 258 257 259 261 264 265 266 268 269 270 269 269 270 271 272 273 274 275 276 276 277 278 279 281 282 283 284 285
259 261 263 265 265 263 261 258 258 258 262 264 263 263 266 266 265 264 265 268 268 269 270 272 274 274 275 277 278 278 278 276 277 279 279 279 280 282 283 284 284 284 286
262 262 261 259 261 262 262 263 264 265 267 269 271 271 272 271 271 269 271 273 273 274 274 275 276 276 278 278 279 281 281 281 282 284 284 284 284 286 287 286 287 288 288
261 260 259 259 260 262 262 263 264 267 270 272 274 275 276 275 274 273 274 275 275 276 278 279 279 279 280 281 281 282 283 283 283 284 286 287 288 288 289 288 288 288 289
262 263 261 262 262 262 263 264 266 268 270 272 275 277 277 277 276 276 277 279 279 280 280 280 281 282 282 283 284 284 285 286 285 286 287 288 289 290 289 289 289 289 289
263 264 264 264 263 263 263 264 266 268 269 272 275 277 277 277 276 277 279 280 282 283 283 283 283 283 284 285 288 288 287 288 288 288 288 289 290 290 291 291 292 292 292
261 262 263 264 264 264 264 266 268 270 273 275 275 279 280 280 281 282 282 282 284 285 286 288 288 288 288 289 291 291 290 290 290 291 291 291 292 292 293 294 294 294 294
260 261 262 264 265 265 266 268 268 271 275 277 277 279 281 282 282 282 284 285 286 286 287 288 289 289 289 290 292 292 292 292 293 293 293 293 293 293 293 294 294 295 294
259 260 263 266 268 268 270 271 272 274 277 279 279 282 284 284 283 283 285 286 288 289 290 290 291 291 291 292 293 293 293 293 294 294 294 294 294 294 294 294 295 295 295
260 261 264 267 270 272 274 275 275 276 277 279 280 282 284 285 286 288 289 290 290 291 292 293 293 294 294 294 295 295 295 295 295 295 295 295 295 295 295 295 296 296 296
262 264 267 269 270 272 275 277 277 277 279 282 285 286 288 289 291 292 292 293 294 294 294 294 294 295 295 296 296 297 297 297 297 296 296 296 296 296 296 297 297 297 297
263 266 269 270 272 274 276 278 282 285 287 289 290 291 292 293 293 294 295 296 296 296 296 297 297 297 298 298 298 299 299 299 299 298 298 298 298 298 298 298 298 299 299
266 267 270 273 276 279 281 283 286 288 289 290 291 292 294 295 296 297 297 298 298 298 299 299 299 300 300 301 301 301 301 301 300 300 299 299 299 300 300 299 299 300 300
270 273 275 279 281 282 284 286 289 291 292 293 294 295 296 297 298 298 299 300 300 301 301 301 301 302 302 302 302 302 302 302 302 302 302 302 301 301 301 301 300 301 301
275 278 280 282 284 287 289 291 292 293 294 295 297 298 299 300 300 301 301 302 302 301 302 302 303 303 303 303 303 303 303 303 303 303 304 303 303 302 303 303 303 303 303
278 280 283 285 287 289 291 293 295 296 297 299 300 300 301 301 301 302 303 303 303 302 303 303 303 304 304 303 303 304 304 305 305 305 305 305 305 305 305 305 304 305 305
280 282 285 287 290 292 294 295 297 299 300 300 301 302 302 303 303 303 304 304 304 304 304 304 305 305 306 306 306 305 306 306 307 307 308 308 308 309 309 308 307 307 307
Height
5840 5840 5841 5842 5843 5844 5846 5847 5849 5851 5853 5855 5857 5859 5861 5863 5865 5867 5869 5871 5872 5873 5874 5875 5876 5877 5878 5879 5879 5879 5879 5880 5880 5880 5879 5879 5879 5879 5879 5878 5877 5877 5876
5836 5837 5837 5838 5839 5840 5841 5843 5844 5846 5848 5850 5852 5854 5856 5858 5860 5862 5864 5865 5867 5868 5869 5870 5871 5872 5873 5873 5874 5874 5874 5874 5874 5874 5874 5874 5874 5873 5873 5872 5871 5870 5869
5832 5833 5833 5834 5835 5836 5837 5838 5840 5842 5843 5845 5847 5849 5851 5853 5855 5857 5859 5860 5862 5863 5864 5865 5866 5866 5867 5867 5868 5868 5868 5868 5868 5868 5868 5868 5867 5867 5866 5865 5864 5863 5862
5829 5829 5829 5830 5832 5832 5833 5834 5836 5837 5839 5841 5842 5844 5846 5848 5850 5852 5853 5855 5856 5857 5858 5859 5860 5860 5861 5861 5862 5862 5862 5862 5862 5862 5862 5861 5860 5859 5859 5858 5856 5855 5854
5826 5826 5826 5827 5828 5829 5830 5830 5832 5833 5835 5836 5837 5839 5841 5843 5844 5846 5848 5849 5850 5851 5852 5853 5854 5854 5855 5855 5855 5855 5855 5855 5855 5854 5854 5853 5852 5851 5850 5849 5848 5846 5845
5824 5823 5824 5824 5825 5825 5826 5827 5828 5829 5830 5831 5832 5834 5835 5837 5839 5841 5842 5843 5844 5845 5846 5846 5847 5847 5848 5848 5848 5848 5848 5847 5847 5847 5846 5845 5844 5842 5841 5840 5839 5837 5835
5821 5821 5821 5821 5822 5822 5823 5824 5825 5825 5826 5827 5828 5830 5831 5832 5834 5835 5836 5837 5838 5839 5839 5840 5840 5840 5841 5841 5841 5840 5840 5840 5839 5838 5837 5836 5835 5833 5832 5830 5829 5827 5825
5819 5819 5819 5819 5820 5820 5821 5821 5822 5822 5823 5824 5824 5825 5826 5828 5829 5830 5831 5832 5832 5832 5832 5833 5832 5833 5833 5833 5833 5832 5832 5831 5830 5829 5828 5827 5825 5824 5822 5820 5818 5816 5815
5816 5817 5817 5817 5817 5818 5818 5818 5819 5819 5819 5820 5821 5821 5822 5823 5824 5825 5825 5826 5826 5826 5826 5826 5825 5825 5825 5824 5824 5824 5823 5822 5820 5819 5818 5816 5815 5813 5811 5809 5807 5805 5803
5813 5814 5814 5814 5815 5815 5815 5816 5816 5816 5816 5817 5817 5817 5818 5818 5819 5819 5820 5820 5820 5820 5819 5819 5818 5817 5817 5816 5815 5814 5813 5812 5811 5809 5808 5806 5804 5802 5800 5798 5796 5794 5791
5810 5811 5811 5811 5812 5812 5812 5812 5813 5813 5813 5813 5813 5813 5813 5814 5814 5814 5814 5814 5814 5813 5812 5811 5810 5810 5809 5808 5807 5805 5804 5802 5800 5799 5797 5795 5793 5791 5789 5786 5784 5781 5778
5807 5807 5808 5808 5808 5809 5809 5809 5809 5809 5809 5809 5809 5809 5809 5809 5808 5808 5808 5807 5807 5806 5805 5804 5803 5802 5801 5799 5798 5796 5794 5792 5790 5788 5786 5783 5781 5779 5777 5774 5771 5769 5766
5802 5803 5803 5804 5804 5804 5805 5805 5805 5805 5805 5805 5805 5804 5804 5803 5802 5802 5801 5800 5800 5799 5798 5797 5795 5794 5793 5791 5789 5787 5785 5783 5780 5778 5776 5773 5771 5768 5765 5762 5759 5756 5753
5798 5798 5798 5799 5799 5800 5800 5800 5801 5800 5800 5800 5799 5799 5798 5797 5796 5795 5794 5793 5793 5792 5790 5789 5787 5786 5784 5782 5780 5777 5775 5772 5770 5768 5765 5762 5759 5756 5753 5750 5746 5743 5739
5794 5794 5794 5794 5795 5795 5795 5795 5795 5795 5795 5795 5794 5793 5792 5791 5790 5789 5788 5787 5786 5784 5782 5781 5779 5777 5775 5773 5770 5768 5765 5762 5759 5756 5753 5750 5747 5743 5740 5736 5732 5728 5725
5789 5789 5789 5790 5790 5790 5790 5790 5789 5789 5789 5789 5788 5787 5785 5784 5783 5782 5781 5780 5778 5777 5775 5773 5771 5768 5766 5763 5760 5757 5754 5751 5748 5744 5741 5737 5733 5730 5726 5722 5718 5714 5709
5784 5784 5784 5784 5784 5785 5784 5784 5784 5783 5783 5782 5781 5780 5779 5778 5776 5775 5774 5772 5770 5768 5766 5764 5761 5759 5756 5753 5750 5746 5743 5739 5736 5732 5728 5724 5720 5715 5711 5707 5703 5698 5694
5779 5779 5780 5779 5779 5779 5779 5778 5778 5777 5777 5775 5774 5773 5772 5771 5769 5768 5766 5764 5762 5759 5757 5754 5751 5748 5745 5742 5738 5734 5731 5727 5723 5719 5714 5710 5706 5701 5697 5692 5688 5683 5678
5774 5774 5774 5774 5774 5773 5773 5772 5771 5771 5770 5769 5767 5766 5765 5763 5761 5760 5757 5755 5752 5749 5746 5743 5740 5737 5733 5730 5726 5722 5718 5714 5709 5705 5700 5696 5691 5687 5682 5677 5673 5668 5663
5769 5769 5769 5768 5768 5767 5767 5766 5765 5764 5763 5762 5760 5759 5757 5755 5753 5751 5748 5745 5742 5739 5736 5733 5729 5725 5721 5717 5713 5709 5705 5700 5696 5691 5686 5682 5677 5672 5668 5664 5659 5654 5650
5763 5763 5763 5763 5763 5762 5761 5760 5759 5758 5756 5755 5754 5752 5749 5747 5744 5742 5739 5736 5732 5729 5725 5722 5718 5713 5709 5705 5701 5696 5692 5687 5682 5678 5673 5668 5664 5659 5655 5650 5646 5641 5637
5758 5758 5758 5758 5757 5756 5755 5754 5753 5751 5750 5748 5746 5744 5741 5739 5736 5732 5729 5726 5722 5718 5714 5710 5706 5701 5697 5692 5688 5683 5679 5674 5669 5665 5660 5656 5652 5647 5643 5639 5634 5630 5625
5754 5753 5753 5752 5752 5751 5749 5748 5746 5745 5743 5741 5738 5735 5732 5729 5726 5723 5719 5715 5711 5707 5703 5698 5694 5689 5685 5680 5676 5671 5667 5662 5658 5653 5649 5645 5641 5636 5632 5628 5624 5619 5615
5749 5748 5747 5747 5746 5745 5743 5741 5739 5737 5735 5733 5730 5726 5723 5720 5716 5712 5709 5704 5700 5696 5691 5687 5682 5678 5673 5669 5664 5660 5655 5651 5647 5643 5639 5635 5630 5626 5622 5618 5613 5609 5605
5743 5742 5741 5740 5739 5738 5736 5734 5732 5729 5727 5724 5721 5717 5714 5710 5706 5702 5698 5694 5689 5685 5680 5676 5672 5667 5663 5658 5654 5649 5645 5641 5637 5633 5629 5625 5621 5617 5613 5608 5604 5600 5596
5737 5736 5735 5734 5732 5730 5728 5726 5724 5721 5718 5715 5711 5708 5704 5700 5696 5692 5687 5683 5679 5674 5670 5666 5661 5657 5652 5648 5644 5640 5636 5632 5628 5624 5620 5616 5612 5608 5604 5600 5596 5592 5588